Time,TemperatureF,DewpointF,PressureIn,WindDirection,WindDirectionDegrees,WindSpeedMPH,WindSpeedGustMPH,Humidity,HourlyPrecipIn,Conditions,Clouds,dailyrainin,SolarRadiationWatts/m^2,SoftwareType,DateUTC
2013-04-22 00:01:00,29.3,25.4,30.65,West,279,0.0,0.0,85,0.00,CLR,,0.00,0.0,WeatherDisplay:10.37,2013-04-22 04:01:00,
2013-04-22 00:03:00,29.3,25.4,30.65,West,279,1.2,0.0,85,0.00,CLR,,0.00,0.0,WeatherDisplay:10.37,2013-04-22 04:03:00,
2013-04-22 00:04:00,29.3,25.4,30.65,West,279,1.2,0.0,85,0.00,CLR,,0.00,0.0,WeatherDisplay:10.37,2013-04-22 04:04:00,
2013-04-22 00:09:00,29.4,25.7,30.65,West,278,1.2,1.2,86,0.00,CLR,,0.00,0.0,WeatherDisplay:10.37,2013-04-22 04:09:00,
2013-04-22 00:14:00,29.5,25.8,30.65,West,279,0.0,0.0,86,0.00,CLR,,0.00,0.0,WeatherDisplay:10.37,2013-04-22 04:14:00,
2013-04-22 00:19:00,29.5,25.5,30.65,West,278,0.0,0.0,85,0.00,CLR,,0.00,0.0,WeatherDisplay:10.37,2013-04-22 04:19:00,
2013-04-22 00:24:00,29.4,25.4,30.65,West,279,0.0,0.0,85,0.00,CLR,,0.00,0.0,WeatherDisplay:10.37,2013-04-22 04:24:00,
2013-04-22 00:29:00,29.4,25.7,30.65,West,279,1.2,0.0,86,0.00,CLR,,0.00,0.0,WeatherDisplay:10.37,2013-04-22 04:29:00,
2013-04-22 00:34:00,29.4,25.7,30.65,West,278,0.0,0.0,86,0.00,CLR,,0.00,0.0,WeatherDisplay:10.37,2013-04-22 04:34:00,
2013-04-22 00:39:00,29.3,25.6,30.65,West,279,0.0,0.0,86,0.00,CLR,,0.00,0.0,WeatherDisplay:10.37,2013-04-22 04:39:00,
2013-04-22 00:44:00,29.1,25.4,30.65,West,279,0.0,0.0,86,0.00,CLR,,0.00,0.0,WeatherDisplay:10.37,2013-04-22 04:44:00,
2013-04-22 00:49:00,29.0,25.3,30.65,West,278,0.0,0.0,86,0.00,CLR,,0.00,0.0,WeatherDisplay:10.37,2013-04-22 04:49:00,
2013-04-22 00:54:00,29.0,25.3,30.65,West,278,0.0,0.0,86,0.00,CLR,,0.00,0.0,WeatherDisplay:10.37,2013-04-22 04:54:00,
2013-04-22 00:59:00,29.0,25.3,30.65,West,279,0.0,0.0,86,0.00,CLR,,0.00,0.0,WeatherDisplay:10.37,2013-04-22 04:59:00,
2013-04-22 01:04:00,28.8,25.1,30.65,West,279,0.0,0.0,86,0.00,CLR,,0.00,0.0,WeatherDisplay:10.37,2013-04-22 05:04:00,
2013-04-22 01:09:00,28.7,25.0,30.65,West,279,0.0,0.0,86,0.00,CLR,,0.00,0.0,WeatherDisplay:10.37,2013-04-22 05:09:00,
2013-04-22 01:14:00,28.4,24.7,30.65,West,279,0.0,0.0,86,0.00,CLR,,0.00,0.0,WeatherDisplay:10.37,2013-04-22 05:14:00,
2013-04-22 01:19:00,28.4,25.0,30.65,West,279,0.0,0.0,87,0.00,CLR,,0.00,0.0,WeatherDisplay:10.37,2013-04-22 05:19:00,
2013-04-22 01:24:00,28.2,24.8,30.65,West,279,0.0,0.0,87,0.00,CLR,,0.00,0.0,WeatherDisplay:10.37,2013-04-22 05:24:00,
2013-04-22 01:29:00,28.1,24.7,30.65,West,278,0.0,0.0,87,0.00,CLR,,0.00,0.0,WeatherDisplay:10.37,2013-04-22 05:29:00,
2013-04-22 01:34:00,27.9,24.5,30.65,West,279,0.0,0.0,87,0.00,CLR,,0.00,0.0,WeatherDisplay:10.37,2013-04-22 05:34:00,
2013-04-22 01:39:00,27.8,24.4,30.65,West,279,0.0,0.0,87,0.00,CLR,,0.00,0.0,WeatherDisplay:10.37,2013-04-22 05:39:00,
2013-04-22 01:44:00,27.8,24.4,30.64,West,279,0.0,0.0,87,0.00,CLR,,0.00,0.0,WeatherDisplay:10.37,2013-04-22 05:44:00,
2013-04-22 01:49:00,27.9,24.8,30.64,West,279,0.0,0.0,88,0.00,CLR,,0.00,0.0,WeatherDisplay:10.37,2013-04-22 05:49:00,
2013-04-22 01:54:00,27.8,24.4,30.64,West,278,0.0,0.0,87,0.00,CLR,,0.00,0.0,WeatherDisplay:10.37,2013-04-22 05:54:00,
2013-04-22 01:59:00,27.6,24.2,30.64,West,279,0.0,0.0,87,0.00,CLR,,0.00,0.0,WeatherDisplay:10.37,2013-04-22 05:59:00,
2013-04-22 02:04:00,27.5,24.4,30.64,West,278,0.0,0.0,88,0.00,CLR,,0.00,0.0,WeatherDisplay:10.37,2013-04-22 06:04:00,
2013-04-22 02:09:00,27.5,24.4,30.64,West,279,1.2,0.0,88,0.00,CLR,,0.00,0.0,WeatherDisplay:10.37,2013-04-22 06:09:00,
2013-04-22 02:14:00,27.5,24.4,30.64,West,279,0.0,0.0,88,0.00,CLR,,0.00,0.0,WeatherDisplay:10.37,2013-04-22 06:14:00,
2013-04-22 02:19:00,27.3,24.2,30.64,West,278,0.0,0.0,88,0.00,CLR,,0.00,0.0,WeatherDisplay:10.37,2013-04-22 06:19:00,
2013-04-22 02:24:00,27.3,24.2,30.64,West,279,0.0,0.0,88,0.00,CLR,,0.00,0.0,WeatherDisplay:10.37,2013-04-22 06:24:00,
2013-04-22 02:29:00,27.2,24.1,30.64,West,279,0.0,0.0,88,0.00,CLR,,0.00,0.0,WeatherDisplay:10.37,2013-04-22 06:29:00,
2013-04-22 02:34:00,27.0,24.2,30.64,West,279,0.0,0.0,89,0.00,CLR,,0.00,0.0,WeatherDisplay:10.37,2013-04-22 06:34:00,
2013-04-22 02:39:00,27.0,24.2,30.64,West,279,0.0,0.0,89,0.00,CLR,,0.00,0.0,WeatherDisplay:10.37,2013-04-22 06:39:00,
2013-04-22 02:44:00,27.0,24.2,30.64,West,279,0.0,0.0,89,0.00,CLR,,0.00,0.0,WeatherDisplay:10.37,2013-04-22 06:44:00,
2013-04-22 02:49:00,26.9,24.1,30.64,West,279,0.0,0.0,89,0.00,CLR,,0.00,0.0,WeatherDisplay:10.37,2013-04-22 06:49:00,
2013-04-22 02:54:00,26.7,23.9,30.64,West,278,0.0,0.0,89,0.00,CLR,,0.00,0.0,WeatherDisplay:10.37,2013-04-22 06:54:00,
2013-04-22 02:59:00,26.6,23.8,30.63,West,279,0.0,0.0,89,0.00,CLR,,0.00,0.0,WeatherDisplay:10.37,2013-04-22 06:59:00,
2013-04-22 03:04:00,26.6,23.8,30.63,West,279,1.2,0.0,89,0.00,CLR,,0.00,0.0,WeatherDisplay:10.37,2013-04-22 07:04:00,
2013-04-22 03:09:00,26.7,24.2,30.63,West,278,0.0,0.0,90,0.00,CLR,,0.00,0.0,WeatherDisplay:10.37,2013-04-22 07:09:00,
2013-04-22 03:14:00,26.7,23.9,30.63,West,278,0.0,0.0,89,0.00,CLR,,0.00,0.0,WeatherDisplay:10.37,2013-04-22 07:14:00,
2013-04-22 03:19:00,26.6,23.8,30.63,West,279,0.0,0.0,89,0.00,CLR,,0.00,0.0,WeatherDisplay:10.37,2013-04-22 07:19:00,
2013-04-22 03:24:00,26.4,23.9,30.63,West,279,0.0,0.0,90,0.00,CLR,,0.00,0.0,WeatherDisplay:10.37,2013-04-22 07:24:00,
2013-04-22 03:29:00,26.4,23.9,30.63,West,278,1.2,1.2,90,0.00,CLR,,0.00,0.0,WeatherDisplay:10.37,2013-04-22 07:29:00,
2013-04-22 03:34:00,26.4,23.9,30.63,West,278,0.0,0.0,90,0.00,CLR,,0.00,0.0,WeatherDisplay:10.37,2013-04-22 07:34:00,
2013-04-22 03:39:00,26.3,23.8,30.63,West,279,0.0,0.0,90,0.00,CLR,,0.00,0.0,WeatherDisplay:10.37,2013-04-22 07:39:00,
2013-04-22 03:44:00,26.3,23.8,30.63,West,279,2.0,2.0,90,0.00,CLR,,0.00,0.0,WeatherDisplay:10.37,2013-04-22 07:44:00,
2013-04-22 03:49:00,26.1,23.6,30.63,West,278,2.3,2.3,90,0.00,CLR,,0.00,0.0,WeatherDisplay:10.37,2013-04-22 07:49:00,
2013-04-22 03:54:00,26.3,23.8,30.63,WSW,256,2.3,2.3,90,0.00,CLR,,0.00,0.0,WeatherDisplay:10.37,2013-04-22 07:54:00,
2013-04-22 03:59:00,26.3,23.8,30.63,WSW,256,1.2,0.0,90,0.00,CLR,,0.00,0.0,WeatherDisplay:10.37,2013-04-22 07:59:00,
2013-04-22 04:04:00,26.3,23.8,30.63,WSW,256,2.3,2.3,90,0.00,CLR,,0.00,0.0,WeatherDisplay:10.37,2013-04-22 08:04:00,
2013-04-22 04:09:00,26.3,23.8,30.63,SE,144,2.3,2.3,90,0.00,CLR,,0.00,0.0,WeatherDisplay:10.37,2013-04-22 08:09:00,
2013-04-22 04:14:00,26.4,24.1,30.63,East,87,3.0,3.0,91,0.00,CLR,,0.00,0.0,WeatherDisplay:10.37,2013-04-22 08:14:00,
2013-04-22 04:19:00,26.6,24.3,30.63,East,98,4.0,4.0,91,0.00,CLR,,0.00,0.0,WeatherDisplay:10.37,2013-04-22 08:19:00,
2013-04-22 04:24:00,27.0,24.5,30.63,East,100,4.0,4.0,90,0.00,CLR,,0.00,0.0,WeatherDisplay:10.37,2013-04-22 08:24:00,
2013-04-22 04:29:00,27.6,25.1,30.63,East,96,6.0,6.0,90,0.00,CLR,,0.00,0.0,WeatherDisplay:10.37,2013-04-22 08:29:00,
2013-04-22 04:34:00,28.5,25.1,30.63,ESE,112,7.0,7.0,87,0.00,CLR,,0.00,0.0,WeatherDisplay:10.37,2013-04-22 08:34:00,
2013-04-22 04:39:00,29.7,24.6,30.63,East,99,5.8,5.8,81,0.00,CLR,,0.00,0.0,WeatherDisplay:10.37,2013-04-22 08:39:00,
2013-04-22 04:44:00,30.4,24.4,30.62,ESE,106,7.0,7.0,78,0.00,CLR,,0.00,0.0,WeatherDisplay:10.37,2013-04-22 08:44:00,
2013-04-22 04:49:00,31.2,23.5,30.62,SE,132,5.0,5.0,73,0.00,CLR,,0.00,0.0,WeatherDisplay:10.37,2013-04-22 08:49:00,
2013-04-22 04:54:00,31.9,22.9,30.62,East,101,7.0,7.0,69,0.00,CLR,,0.00,0.0,WeatherDisplay:10.37,2013-04-22 08:54:00,
2013-04-22 04:59:00,32.4,22.7,30.62,East,87,10.0,10.0,67,0.00,CLR,,0.00,0.0,WeatherDisplay:10.37,2013-04-22 08:59:00,
2013-04-22 05:04:00,32.7,22.2,30.62,East,99,6.9,6.9,65,0.00,CLR,,0.00,0.0,WeatherDisplay:10.37,2013-04-22 09:04:00,
2013-04-22 05:09:00,33.1,21.9,30.62,ESE,116,6.0,6.0,63,0.00,CLR,,0.00,0.0,WeatherDisplay:10.37,2013-04-22 09:09:00,
2013-04-22 05:14:00,33.1,21.9,30.63,East,87,11.0,11.0,63,0.00,CLR,,0.00,0.0,WeatherDisplay:10.37,2013-04-22 09:14:00,
2013-04-22 05:19:00,33.2,21.2,30.63,ESE,109,7.0,7.0,61,0.00,CLR,,0.00,0.0,WeatherDisplay:10.37,2013-04-22 09:19:00,
2013-04-22 05:24:00,33.4,21.0,30.63,ENE,64,9.2,9.2,60,0.00,CLR,,0.00,0.0,WeatherDisplay:10.37,2013-04-22 09:24:00,
2013-04-22 05:29:00,33.5,21.1,30.62,ESE,106,6.0,6.0,60,0.00,CLR,,0.00,0.0,WeatherDisplay:10.37,2013-04-22 09:29:00,
2013-04-22 05:34:00,33.5,20.7,30.62,East,99,10.4,10.4,59,0.00,CLR,,0.00,0.0,WeatherDisplay:10.37,2013-04-22 09:34:00,
2013-04-22 05:39:00,33.4,20.6,30.62,East,93,9.2,9.2,59,0.00,CLR,,0.00,0.0,WeatherDisplay:10.37,2013-04-22 09:39:00,
2013-04-22 05:44:00,33.5,20.7,30.63,East,93,5.0,5.0,59,0.00,CLR,,0.00,0.0,WeatherDisplay:10.37,2013-04-22 09:44:00,
2013-04-22 05:49:00,33.7,20.9,30.63,East,101,7.0,7.0,59,0.00,CLR,,0.00,0.0,WeatherDisplay:10.37,2013-04-22 09:49:00,
2013-04-22 05:54:00,33.7,20.5,30.63,East,92,9.2,9.2,58,0.00,CLR,,0.00,0.0,WeatherDisplay:10.37,2013-04-22 09:54:00,
2013-04-22 05:59:00,33.7,20.5,30.64,East,97,7.0,7.0,58,0.00,CLR,,0.00,0.0,WeatherDisplay:10.37,2013-04-22 09:59:00,
2013-04-22 06:04:00,33.5,20.7,30.64,ESE,108,11.5,11.5,59,0.00,CLR,,0.00,0.0,WeatherDisplay:10.37,2013-04-22 10:04:00,
2013-04-22 06:09:00,33.7,20.5,30.64,ESE,103,10.4,10.4,58,0.00,CLR,,0.00,0.0,WeatherDisplay:10.37,2013-04-22 10:09:00,
2013-04-22 06:14:00,33.8,20.6,30.64,East,87,10.4,10.4,58,0.00,CLR,,0.00,0.0,WeatherDisplay:10.37,2013-04-22 10:14:00,
2013-04-22 06:19:00,33.8,20.2,30.64,ESE,109,7.0,7.0,57,0.00,CLR,,0.00,7.0,WeatherDisplay:10.37,2013-04-22 10:19:00,
2013-04-22 06:24:00,34.1,20.0,30.64,East,99,11.0,11.0,56,0.00,CLR,,0.00,11.0,WeatherDisplay:10.37,2013-04-22 10:24:00,
2013-04-22 06:29:00,34.1,20.0,30.64,ESE,109,9.2,9.2,56,0.00,CLR,,0.00,14.0,WeatherDisplay:10.37,2013-04-22 10:29:00,
2013-04-22 06:34:00,34.3,19.8,30.64,ENE,68,11.5,11.5,55,0.00,CLR,,0.00,21.0,WeatherDisplay:10.37,2013-04-22 10:34:00,
2013-04-22 06:39:00,34.3,19.8,30.64,East,86,11.0,11.0,55,0.00,CLR,,0.00,28.0,WeatherDisplay:10.37,2013-04-22 10:39:00,
2013-04-22 06:44:00,34.4,19.9,30.64,ESE,113,11.0,11.0,55,0.00,CLR,,0.00,35.0,WeatherDisplay:10.37,2013-04-22 10:44:00,
2013-04-22 06:49:00,34.4,19.9,30.64,East,100,10.4,10.4,55,0.00,CLR,,0.00,42.0,WeatherDisplay:10.37,2013-04-22 10:49:00,
2013-04-22 06:54:00,34.6,19.6,30.64,ESE,104,9.0,9.0,54,0.00,CLR,,0.00,51.0,WeatherDisplay:10.37,2013-04-22 10:54:00,
2013-04-22 06:59:00,34.7,19.7,30.65,ESE,111,10.4,10.4,54,0.00,CLR,,0.00,60.0,WeatherDisplay:10.37,2013-04-22 10:59:00,
2013-04-22 07:04:00,34.9,19.9,30.65,East,101,11.0,11.0,54,0.00,CLR,,0.00,69.0,WeatherDisplay:10.37,2013-04-22 11:04:00,
2013-04-22 07:09:00,34.9,19.9,30.65,ESE,109,7.0,7.0,54,0.00,CLR,,0.00,77.0,WeatherDisplay:10.37,2013-04-22 11:09:00,
2013-04-22 07:14:00,35.0,20.0,30.65,East,90,11.5,11.5,54,0.00,CLR,,0.00,86.0,WeatherDisplay:10.37,2013-04-22 11:14:00,
2013-04-22 07:19:00,35.3,19.9,30.65,SE,128,13.0,13.0,53,0.00,CLR,,0.00,97.0,WeatherDisplay:10.37,2013-04-22 11:19:00,
2013-04-22 07:24:00,35.5,20.0,30.65,SE,129,11.5,11.5,53,0.00,CLR,,0.00,105.0,WeatherDisplay:10.37,2013-04-22 11:24:00,
2013-04-22 07:29:00,35.8,19.9,30.66,ESE,120,9.0,9.0,52,0.00,CLR,,0.00,120.0,WeatherDisplay:10.37,2013-04-22 11:29:00,
2013-04-22 07:34:00,36.0,19.6,30.66,East,99,12.0,12.0,51,0.00,CLR,,0.00,128.0,WeatherDisplay:10.37,2013-04-22 11:34:00,
2013-04-22 07:39:00,36.3,19.9,30.66,East,99,12.0,12.0,51,0.00,CLR,,0.00,141.0,WeatherDisplay:10.37,2013-04-22 11:39:00,
2013-04-22 07:44:00,36.6,20.2,30.66,East,90,14.0,14.0,51,0.00,CLR,,0.00,151.0,WeatherDisplay:10.37,2013-04-22 11:44:00,
2013-04-22 07:49:00,36.9,19.5,30.66,East,95,14.0,14.0,49,0.00,CLR,,0.00,158.0,WeatherDisplay:10.37,2013-04-22 11:49:00,
2013-04-22 07:54:00,37.2,20.2,30.66,ESE,102,10.4,10.4,50,0.00,CLR,,0.00,174.0,WeatherDisplay:10.37,2013-04-22 11:54:00,
2013-04-22 07:59:00,37.6,19.7,30.66,ESE,110,16.0,16.0,48,0.00,CLR,,0.00,199.0,WeatherDisplay:10.37,2013-04-22 11:59:00,
2013-04-22 08:04:00,37.9,19.4,30.66,ESE,122,13.0,13.0,47,0.00,CLR,,0.00,200.0,WeatherDisplay:10.37,2013-04-22 12:04:00,
2013-04-22 08:09:00,38.3,20.3,30.66,ESE,110,10.4,10.4,48,0.00,CLR,,0.00,213.0,WeatherDisplay:10.37,2013-04-22 12:09:00,
2013-04-22 08:14:00,38.6,20.1,30.66,SE,125,9.2,9.2,47,0.00,CLR,,0.00,232.0,WeatherDisplay:10.37,2013-04-22 12:14:00,
2013-04-22 08:19:00,38.9,19.3,30.66,East,90,19.6,19.6,45,0.00,CLR,,0.00,260.0,WeatherDisplay:10.37,2013-04-22 12:19:00,
2013-04-22 08:24:00,39.3,20.2,30.66,East,80,18.4,18.4,46,0.00,CLR,,0.00,306.0,WeatherDisplay:10.37,2013-04-22 12:24:00,
2013-04-22 08:29:00,39.6,20.0,30.66,East,99,14.0,14.0,45,0.00,CLR,,0.00,292.0,WeatherDisplay:10.37,2013-04-22 12:29:00,
2013-04-22 08:34:00,39.8,20.7,30.66,ESE,105,12.0,12.0,46,0.00,CLR,,0.00,304.0,WeatherDisplay:10.37,2013-04-22 12:34:00,
2013-04-22 08:39:00,40.1,18.8,30.66,East,93,17.3,17.3,42,0.00,CLR,,0.00,318.0,WeatherDisplay:10.37,2013-04-22 12:39:00,
2013-04-22 08:44:00,40.3,19.5,30.66,ESE,121,14.0,14.0,43,0.00,CLR,,0.00,357.0,WeatherDisplay:10.37,2013-04-22 12:44:00,
2013-04-22 08:49:00,40.8,20.5,30.66,ESE,114,13.0,13.0,44,0.00,CLR,,0.00,353.0,WeatherDisplay:10.37,2013-04-22 12:49:00,
2013-04-22 08:54:00,41.2,19.8,30.66,ESE,104,11.5,11.5,42,0.00,CLR,,0.00,406.0,WeatherDisplay:10.37,2013-04-22 12:54:00,
2013-04-22 08:59:00,41.2,19.8,30.66,SE,127,13.0,13.0,42,0.00,CLR,,0.00,417.0,WeatherDisplay:10.37,2013-04-22 12:59:00,
2013-04-22 09:04:00,41.9,20.4,30.66,East,87,15.0,15.0,42,0.00,CLR,,0.00,422.0,WeatherDisplay:10.37,2013-04-22 13:04:00,
2013-04-22 09:09:00,41.9,19.3,30.66,East,88,16.1,16.1,40,0.00,CLR,,0.00,466.0,WeatherDisplay:10.37,2013-04-22 13:09:00,
2013-04-22 09:14:00,42.1,20.1,30.66,ESE,108,12.0,12.0,41,0.00,CLR,,0.00,446.0,WeatherDisplay:10.37,2013-04-22 13:14:00,
2013-04-22 09:19:00,42.6,20.5,30.66,East,87,12.7,12.7,41,0.00,CLR,,0.00,452.0,WeatherDisplay:10.37,2013-04-22 13:19:00,
2013-04-22 09:24:00,43.2,21.1,30.66,East,79,13.0,13.0,41,0.00,CLR,,0.00,469.0,WeatherDisplay:10.37,2013-04-22 13:24:00,
2013-04-22 09:29:00,43.3,20.6,30.66,East,85,16.1,16.1,40,0.00,CLR,,0.00,485.0,WeatherDisplay:10.37,2013-04-22 13:29:00,
2013-04-22 09:34:00,43.6,22.0,30.66,SE,129,11.5,11.5,42,0.00,CLR,,0.00,513.0,WeatherDisplay:10.37,2013-04-22 13:34:00,
2013-04-22 09:39:00,44.2,21.4,30.66,SE,144,11.5,11.5,40,0.00,CLR,,0.00,497.0,WeatherDisplay:10.37,2013-04-22 13:39:00,
2013-04-22 09:44:00,44.5,22.8,30.65,ESE,115,9.2,9.2,42,0.00,CLR,,0.00,515.0,WeatherDisplay:10.37,2013-04-22 13:44:00,
2013-04-22 09:49:00,44.5,21.0,30.65,East,83,12.7,12.7,39,0.00,CLR,,0.00,531.0,WeatherDisplay:10.37,2013-04-22 13:49:00,
2013-04-22 09:54:00,44.8,22.5,30.65,East,86,7.0,7.0,41,0.00,CLR,,0.00,550.0,WeatherDisplay:10.37,2013-04-22 13:54:00,
2013-04-22 09:59:00,45.1,21.6,30.65,East,94,14.0,14.0,39,0.00,CLR,,0.00,578.0,WeatherDisplay:10.37,2013-04-22 13:59:00,
2013-04-22 10:04:00,45.1,22.8,30.65,East,86,11.5,11.5,41,0.00,CLR,,0.00,613.0,WeatherDisplay:10.37,2013-04-22 14:04:00,
2013-04-22 10:09:00,45.7,23.3,30.65,ENE,71,14.0,14.0,41,0.00,CLR,,0.00,654.0,WeatherDisplay:10.37,2013-04-22 14:09:00,
2013-04-22 10:14:00,46.0,21.8,30.65,SE,141,13.8,13.8,38,0.00,CLR,,0.00,543.0,WeatherDisplay:10.37,2013-04-22 14:14:00,
2013-04-22 10:19:00,46.0,22.4,30.65,SE,136,14.0,14.0,39,0.00,CLR,,0.00,536.0,WeatherDisplay:10.37,2013-04-22 14:19:00,
2013-04-22 10:24:00,46.0,24.2,30.65,East,85,15.0,15.0,42,0.00,CLR,,0.00,598.0,WeatherDisplay:10.37,2013-04-22 14:24:00,
2013-04-22 10:29:00,46.8,23.1,30.65,East,86,10.4,10.4,39,0.00,CLR,,0.00,710.0,WeatherDisplay:10.37,2013-04-22 14:29:00,
2013-04-22 10:34:00,47.9,24.7,30.65,ESE,104,16.0,16.0,40,0.00,CLR,,0.00,735.0,WeatherDisplay:10.37,2013-04-22 14:34:00,
2013-04-22 10:39:00,48.5,26.4,30.65,ESE,113,12.0,12.0,42,0.00,CLR,,0.00,765.0,WeatherDisplay:10.37,2013-04-22 14:39:00,
2013-04-22 10:44:00,48.3,22.5,30.65,ENE,75,11.5,11.5,36,0.00,CLR,,0.00,765.0,WeatherDisplay:10.37,2013-04-22 14:44:00,
2013-04-22 10:49:00,48.8,26.7,30.65,SE,126,13.8,13.8,42,0.00,CLR,,0.00,782.0,WeatherDisplay:10.37,2013-04-22 14:49:00,
2013-04-22 10:54:00,49.2,25.3,30.65,SE,127,16.1,16.1,39,0.00,CLR,,0.00,800.0,WeatherDisplay:10.37,2013-04-22 14:54:00,
2013-04-22 10:59:00,49.2,25.9,30.65,East,87,10.0,10.0,40,0.00,CLR,,0.00,814.0,WeatherDisplay:10.37,2013-04-22 14:59:00,
2013-04-22 11:04:00,49.2,25.3,30.65,ESE,115,12.7,12.7,39,0.00,CLR,,0.00,737.0,WeatherDisplay:10.37,2013-04-22 15:04:00,
2013-04-22 11:09:00,49.8,25.2,30.65,ESE,119,11.5,11.5,38,0.00,CLR,,0.00,717.0,WeatherDisplay:10.37,2013-04-22 15:09:00,
2013-04-22 11:14:00,49.9,27.1,30.64,East,81,12.0,12.0,41,0.00,CLR,,0.00,745.0,WeatherDisplay:10.37,2013-04-22 15:14:00,
2013-04-22 11:19:00,49.6,25.0,30.64,East,79,13.0,13.0,38,0.00,CLR,,0.00,689.0,WeatherDisplay:10.37,2013-04-22 15:19:00,
2013-04-22 11:24:00,49.4,24.8,30.64,ESE,108,17.3,17.3,38,0.00,CLR,,0.00,742.0,WeatherDisplay:10.37,2013-04-22 15:24:00,
2013-04-22 11:29:00,49.2,25.3,30.64,ESE,105,16.1,16.1,39,0.00,CLR,,0.00,791.0,WeatherDisplay:10.37,2013-04-22 15:29:00,
2013-04-22 11:34:00,49.5,25.5,30.64,East,85,11.5,11.5,39,0.00,CLR,,0.00,744.0,WeatherDisplay:10.37,2013-04-22 15:34:00,
2013-04-22 11:39:00,49.6,26.2,30.64,East,86,11.5,11.5,40,0.00,CLR,,0.00,682.0,WeatherDisplay:10.37,2013-04-22 15:39:00,
2013-04-22 11:44:00,49.4,24.8,30.63,East,93,14.0,14.0,38,0.00,CLR,,0.00,682.0,WeatherDisplay:10.37,2013-04-22 15:44:00,
2013-04-22 11:49:00,49.5,26.7,30.63,East,83,10.4,10.4,41,0.00,CLR,,0.00,782.0,WeatherDisplay:10.37,2013-04-22 15:49:00,
2013-04-22 11:54:00,49.9,25.9,30.63,East,87,12.0,12.0,39,0.00,CLR,,0.00,849.0,WeatherDisplay:10.37,2013-04-22 15:54:00,
2013-04-22 12:00:00,50.4,25.1,30.62,NE,42,7.0,7.0,37,0.00,CLR,,0.00,868.0,WeatherDisplay:10.37,2013-04-22 16:00:00,
2013-04-22 12:05:00,50.2,24.9,30.62,NE,45,17.3,17.3,37,0.00,CLR,,0.00,823.0,WeatherDisplay:10.37,2013-04-22 16:05:00,
2013-04-22 12:10:00,50.2,27.4,30.62,SE,124,16.0,16.0,41,0.00,CLR,,0.00,796.0,WeatherDisplay:10.37,2013-04-22 16:10:00,
2013-04-22 12:15:00,50.1,24.2,30.61,ESE,116,18.4,18.4,36,0.00,CLR,,0.00,803.0,WeatherDisplay:10.37,2013-04-22 16:15:00,
2013-04-22 12:20:00,50.1,26.1,30.61,ESE,106,14.0,14.0,39,0.00,CLR,,0.00,833.0,WeatherDisplay:10.37,2013-04-22 16:20:00,
2013-04-22 12:25:00,50.2,24.2,30.61,East,88,15.0,15.0,36,0.00,CLR,,0.00,858.0,WeatherDisplay:10.37,2013-04-22 16:25:00,
2013-04-22 12:30:00,50.5,25.2,30.61,East,92,10.4,10.4,37,0.00,CLR,,0.00,835.0,WeatherDisplay:10.37,2013-04-22 16:30:00,
2013-04-22 12:35:00,50.4,25.1,30.61,NNE,23,10.4,10.4,37,0.00,CLR,,0.00,881.0,WeatherDisplay:10.37,2013-04-22 16:35:00,
2013-04-22 12:40:00,51.0,25.6,30.61,ENE,74,13.0,13.0,37,0.00,CLR,,0.00,851.0,WeatherDisplay:10.37,2013-04-22 16:40:00,
2013-04-22 12:45:00,51.3,26.5,30.60,NE,49,12.0,12.0,38,0.00,CLR,,0.00,854.0,WeatherDisplay:10.37,2013-04-22 16:45:00,
2013-04-22 12:50:00,51.9,27.1,30.60,East,85,11.5,11.5,38,0.00,CLR,,0.00,803.0,WeatherDisplay:10.37,2013-04-22 16:50:00,
2013-04-22 12:55:00,51.7,22.8,30.60,East,79,16.1,16.1,32,0.00,CLR,,0.00,610.0,WeatherDisplay:10.37,2013-04-22 16:55:00,
2013-04-22 13:00:00,51.6,24.8,30.59,East,94,6.0,6.0,35,0.00,CLR,,0.00,791.0,WeatherDisplay:10.37,2013-04-22 17:00:00,
2013-04-22 13:05:00,52.0,25.8,30.59,East,80,15.0,15.0,36,0.00,CLR,,0.00,912.0,WeatherDisplay:10.37,2013-04-22 17:05:00,
2013-04-22 13:10:00,52.9,28.0,30.59,East,98,14.0,14.0,38,0.00,CLR,,0.00,904.0,WeatherDisplay:10.37,2013-04-22 17:10:00,
2013-04-22 13:15:00,52.8,25.2,30.58,SE,127,17.3,17.3,34,0.00,CLR,,0.00,816.0,WeatherDisplay:10.37,2013-04-22 17:15:00,
2013-04-22 13:20:00,52.3,23.3,30.58,ESE,106,11.5,11.5,32,0.00,CLR,,0.00,923.0,WeatherDisplay:10.37,2013-04-22 17:20:00,
2013-04-22 13:25:00,52.6,22.0,30.58,SE,143,17.0,17.0,30,0.00,CLR,,0.00,939.0,WeatherDisplay:10.37,2013-04-22 17:25:00,
2013-04-22 13:30:00,52.9,24.5,30.57,East,87,13.0,13.0,33,0.00,CLR,,0.00,916.0,WeatherDisplay:10.37,2013-04-22 17:30:00,
2013-04-22 13:35:00,53.1,23.2,30.57,SSE,149,12.0,12.0,31,0.00,CLR,,0.00,863.0,WeatherDisplay:10.37,2013-04-22 17:35:00,
2013-04-22 13:40:00,53.2,27.6,30.57,ESE,119,9.2,9.2,37,0.00,CLR,,0.00,765.0,WeatherDisplay:10.37,2013-04-22 17:40:00,
2013-04-22 13:45:00,52.9,21.5,30.56,ENE,59,6.0,6.0,29,0.00,CLR,,0.00,747.0,WeatherDisplay:10.37,2013-04-22 17:45:00,
2013-04-22 13:50:00,52.8,23.0,30.56,NNE,26,12.0,12.0,31,0.00,CLR,,0.00,831.0,WeatherDisplay:10.37,2013-04-22 17:50:00,
2013-04-22 13:55:00,53.3,24.9,30.56,ENE,63,12.0,12.0,33,0.00,CLR,,0.00,775.0,WeatherDisplay:10.37,2013-04-22 17:55:00,
2013-04-22 14:00:00,53.1,24.0,30.56,East,90,12.0,12.0,32,0.00,CLR,,0.00,747.0,WeatherDisplay:10.37,2013-04-22 18:00:00,
2013-04-22 14:05:00,52.9,24.5,30.56,ESE,116,17.0,17.0,33,0.00,CLR,,0.00,773.0,WeatherDisplay:10.37,2013-04-22 18:05:00,
2013-04-22 14:10:00,53.2,22.5,30.56,East,87,17.0,17.0,30,0.00,CLR,,0.00,810.0,WeatherDisplay:10.37,2013-04-22 18:10:00,
2013-04-22 14:15:00,53.3,24.9,30.55,East,87,16.1,16.1,33,0.00,CLR,,0.00,793.0,WeatherDisplay:10.37,2013-04-22 18:15:00,
2013-04-22 14:20:00,54.1,23.3,30.55,SE,130,19.6,19.6,30,0.00,CLR,,0.00,886.0,WeatherDisplay:10.37,2013-04-22 18:20:00,
2013-04-22 14:25:00,54.1,24.1,30.55,ESE,113,10.4,10.4,31,0.00,CLR,,0.00,889.0,WeatherDisplay:10.37,2013-04-22 18:25:00,
2013-04-22 14:30:00,54.2,22.6,30.54,NE,54,15.0,15.0,29,0.00,CLR,,0.00,896.0,WeatherDisplay:10.37,2013-04-22 18:30:00,
2013-04-22 14:35:00,54.8,23.9,30.54,SE,140,17.0,17.0,30,0.00,CLR,,0.00,888.0,WeatherDisplay:10.37,2013-04-22 18:35:00,
2013-04-22 14:40:00,54.8,25.5,30.53,ESE,105,11.0,11.0,32,0.00,CLR,,0.00,877.0,WeatherDisplay:10.37,2013-04-22 18:40:00,
2013-04-22 14:45:00,54.4,22.8,30.53,ESE,117,21.9,21.9,29,0.00,CLR,,0.00,875.0,WeatherDisplay:10.37,2013-04-22 18:45:00,
2013-04-22 14:50:00,54.5,22.9,30.53,NNE,26,13.0,13.0,29,0.00,CLR,,0.00,867.0,WeatherDisplay:10.37,2013-04-22 18:50:00,
2013-04-22 14:55:00,54.8,23.1,30.53,East,90,14.0,14.0,29,0.00,CLR,,0.00,840.0,WeatherDisplay:10.37,2013-04-22 18:55:00,
2013-04-22 15:00:00,54.5,22.0,30.53,ENE,73,19.6,19.6,28,0.00,CLR,,0.00,805.0,WeatherDisplay:10.37,2013-04-22 19:00:00,
2013-04-22 15:05:00,54.5,26.0,30.53,ESE,120,13.8,13.8,33,0.00,CLR,,0.00,807.0,WeatherDisplay:10.37,2013-04-22 19:05:00,
2013-04-22 15:10:00,54.7,24.6,30.53,SSE,151,9.2,9.2,31,0.00,CLR,,0.00,819.0,WeatherDisplay:10.37,2013-04-22 19:10:00,
2013-04-22 15:15:00,55.0,25.6,30.52,East,85,14.0,14.0,32,0.00,CLR,,0.00,796.0,WeatherDisplay:10.37,2013-04-22 19:15:00,
2013-04-22 15:20:00,54.5,24.4,30.52,SE,127,17.0,17.0,31,0.00,CLR,,0.00,791.0,WeatherDisplay:10.37,2013-04-22 19:20:00,
2013-04-22 15:25:00,54.4,24.4,30.52,ENE,76,18.4,18.4,31,0.00,CLR,,0.00,780.0,WeatherDisplay:10.37,2013-04-22 19:25:00,
2013-04-22 15:30:00,54.7,23.0,30.51,East,87,18.4,18.4,29,0.00,CLR,,0.00,770.0,WeatherDisplay:10.37,2013-04-22 19:30:00,
2013-04-22 15:35:00,55.0,23.3,30.51,ESE,111,16.1,16.1,29,0.00,CLR,,0.00,759.0,WeatherDisplay:10.37,2013-04-22 19:35:00,
2013-04-22 15:40:00,55.4,23.6,30.51,East,86,11.0,11.0,29,0.00,CLR,,0.00,749.0,WeatherDisplay:10.37,2013-04-22 19:40:00,
2013-04-22 15:45:00,55.7,23.9,30.50,ESE,113,20.0,20.0,29,0.00,CLR,,0.00,740.0,WeatherDisplay:10.37,2013-04-22 19:45:00,
2013-04-22 15:50:00,55.7,27.0,30.50,SE,135,11.5,11.5,33,0.00,CLR,,0.00,728.0,WeatherDisplay:10.37,2013-04-22 19:50:00,
2013-04-22 15:55:00,55.7,23.9,30.49,East,87,18.0,18.0,29,0.00,CLR,,0.00,715.0,WeatherDisplay:10.37,2013-04-22 19:55:00,
2013-04-22 16:00:00,55.9,24.1,30.49,ENE,78,15.0,15.0,29,0.00,CLR,,0.00,703.0,WeatherDisplay:10.37,2013-04-22 20:00:00,
2013-04-22 16:05:00,55.9,24.1,30.49,East,93,16.1,16.1,29,0.00,CLR,,0.00,686.0,WeatherDisplay:10.37,2013-04-22 20:05:00,
2013-04-22 16:10:00,56.0,25.0,30.48,East,96,13.0,13.0,30,0.00,CLR,,0.00,671.0,WeatherDisplay:10.37,2013-04-22 20:10:00,
2013-04-22 16:15:00,56.6,26.3,30.48,ESE,107,17.3,17.3,31,0.00,CLR,,0.00,659.0,WeatherDisplay:10.37,2013-04-22 20:15:00,
2013-04-22 16:20:00,55.7,24.7,30.48,East,90,16.1,16.1,30,0.00,CLR,,0.00,647.0,WeatherDisplay:10.37,2013-04-22 20:20:00,
2013-04-22 16:25:00,55.6,26.2,30.48,ENE,66,9.2,9.2,32,0.00,CLR,,0.00,633.0,WeatherDisplay:10.37,2013-04-22 20:25:00,
2013-04-22 16:30:00,56.3,25.2,30.48,East,92,17.0,17.0,30,0.00,CLR,,0.00,619.0,WeatherDisplay:10.37,2013-04-22 20:30:00,
2013-04-22 16:35:00,56.3,26.0,30.48,East,84,15.0,15.0,31,0.00,CLR,,0.00,605.0,WeatherDisplay:10.37,2013-04-22 20:35:00,
2013-04-22 16:40:00,56.3,25.2,30.48,ESE,111,12.7,12.7,30,0.00,CLR,,0.00,587.0,WeatherDisplay:10.37,2013-04-22 20:40:00,
2013-04-22 16:45:00,56.2,23.5,30.47,ENE,68,13.8,13.8,28,0.00,CLR,,0.00,571.0,WeatherDisplay:10.37,2013-04-22 20:45:00,
2013-04-22 16:50:00,56.5,24.6,30.47,East,85,13.0,13.0,29,0.00,CLR,,0.00,559.0,WeatherDisplay:10.37,2013-04-22 20:50:00,
2013-04-22 16:55:00,56.5,22.9,30.47,SE,125,17.0,17.0,27,0.00,CLR,,0.00,541.0,WeatherDisplay:10.37,2013-04-22 20:55:00,
2013-04-22 17:00:00,56.2,22.6,30.46,ENE,75,18.4,18.4,27,0.00,CLR,,0.00,524.0,WeatherDisplay:10.37,2013-04-22 21:00:00,
2013-04-22 17:05:00,56.5,22.9,30.46,East,86,18.4,18.4,27,0.00,CLR,,0.00,508.0,WeatherDisplay:10.37,2013-04-22 21:05:00,
2013-04-22 17:10:00,56.5,22.9,30.46,ENE,66,12.0,12.0,27,0.00,CLR,,0.00,494.0,WeatherDisplay:10.37,2013-04-22 21:10:00,
2013-04-22 17:15:00,56.7,24.8,30.46,East,101,12.0,12.0,29,0.00,CLR,,0.00,475.0,WeatherDisplay:10.37,2013-04-22 21:15:00,
2013-04-22 17:20:00,56.5,22.9,30.46,East,84,20.0,20.0,27,0.00,CLR,,0.00,459.0,WeatherDisplay:10.37,2013-04-22 21:20:00,
2013-04-22 17:25:00,56.5,23.7,30.46,ENE,61,15.0,15.0,28,0.00,CLR,,0.00,443.0,WeatherDisplay:10.37,2013-04-22 21:25:00,
2013-04-22 17:30:00,56.6,23.8,30.46,NE,35,14.0,14.0,28,0.00,CLR,,0.00,427.0,WeatherDisplay:10.37,2013-04-22 21:30:00,
2013-04-22 17:35:00,56.6,22.1,30.46,East,85,12.7,12.7,26,0.00,CLR,,0.00,410.0,WeatherDisplay:10.37,2013-04-22 21:35:00,
2013-04-22 17:40:00,56.7,23.0,30.45,East,90,15.0,15.0,27,0.00,CLR,,0.00,390.0,WeatherDisplay:10.37,2013-04-22 21:40:00,
2013-04-22 17:45:00,56.7,22.2,30.45,East,92,12.0,12.0,26,0.00,CLR,,0.00,378.0,WeatherDisplay:10.37,2013-04-22 21:45:00,
2013-04-22 17:50:00,56.7,21.2,30.45,East,86,15.0,15.0,25,0.00,CLR,,0.00,357.0,WeatherDisplay:10.37,2013-04-22 21:50:00,
2013-04-22 17:55:00,56.7,22.2,30.45,ESE,109,9.0,9.0,26,0.00,CLR,,0.00,338.0,WeatherDisplay:10.37,2013-04-22 21:55:00,
2013-04-22 18:00:00,56.7,22.2,30.45,East,88,11.5,11.5,26,0.00,CLR,,0.00,323.0,WeatherDisplay:10.37,2013-04-22 22:00:00,
2013-04-22 18:05:00,56.7,22.2,30.45,East,101,19.0,19.0,26,0.00,CLR,,0.00,306.0,WeatherDisplay:10.37,2013-04-22 22:05:00,
2013-04-22 18:10:00,56.3,19.9,30.45,ENE,59,18.4,18.4,24,0.00,CLR,,0.00,288.0,WeatherDisplay:10.37,2013-04-22 22:10:00,
2013-04-22 18:15:00,56.2,20.8,30.45,East,88,16.1,16.1,25,0.00,CLR,,0.00,269.0,WeatherDisplay:10.37,2013-04-22 22:15:00,
2013-04-22 18:20:00,56.2,20.8,30.45,East,87,12.0,12.0,25,0.00,CLR,,0.00,255.0,WeatherDisplay:10.37,2013-04-22 22:20:00,
2013-04-22 18:25:00,56.0,20.6,30.44,ENE,71,12.7,12.7,25,0.00,CLR,,0.00,229.0,WeatherDisplay:10.37,2013-04-22 22:25:00,
2013-04-22 18:30:00,56.0,20.6,30.44,ESE,116,16.0,16.0,25,0.00,CLR,,0.00,207.0,WeatherDisplay:10.37,2013-04-22 22:30:00,
2013-04-22 18:35:00,56.0,21.6,30.44,East,91,13.0,13.0,26,0.00,CLR,,0.00,130.0,WeatherDisplay:10.37,2013-04-22 22:35:00,
2013-04-22 18:40:00,55.7,20.4,30.44,East,87,17.3,17.3,25,0.00,CLR,,0.00,40.0,WeatherDisplay:10.37,2013-04-22 22:40:00,
2013-04-22 18:45:00,55.4,21.0,30.45,ESE,123,17.3,17.3,26,0.00,CLR,,0.00,39.0,WeatherDisplay:10.37,2013-04-22 22:45:00,
2013-04-22 18:50:00,55.3,20.0,30.45,East,80,15.0,15.0,25,0.00,CLR,,0.00,37.0,WeatherDisplay:10.37,2013-04-22 22:50:00,
2013-04-22 18:55:00,55.3,20.0,30.45,ENE,69,16.1,16.1,25,0.00,CLR,,0.00,35.0,WeatherDisplay:10.37,2013-04-22 22:55:00,
2013-04-22 19:00:00,55.1,19.9,30.45,East,87,17.3,17.3,25,0.00,CLR,,0.00,32.0,WeatherDisplay:10.37,2013-04-22 23:00:00,
2013-04-22 19:05:00,54.8,21.4,30.45,East,94,11.5,11.5,27,0.00,CLR,,0.00,30.0,WeatherDisplay:10.37,2013-04-22 23:05:00,
2013-04-22 19:10:00,54.7,21.3,30.45,East,87,7.0,7.0,27,0.00,CLR,,0.00,28.0,WeatherDisplay:10.37,2013-04-22 23:10:00,
2013-04-22 19:15:00,54.5,21.2,30.44,East,87,14.0,14.0,27,0.00,CLR,,0.00,25.0,WeatherDisplay:10.37,2013-04-22 23:15:00,
2013-04-22 19:20:00,54.4,21.9,30.44,ESE,108,10.0,10.0,28,0.00,CLR,,0.00,23.0,WeatherDisplay:10.37,2013-04-22 23:20:00,
2013-04-22 19:25:00,54.1,20.8,30.44,ESE,116,9.0,9.0,27,0.00,CLR,,0.00,21.0,WeatherDisplay:10.37,2013-04-22 23:25:00,
2013-04-22 19:30:00,53.9,20.6,30.44,ESE,112,11.0,11.0,27,0.00,CLR,,0.00,18.0,WeatherDisplay:10.37,2013-04-22 23:30:00,
2013-04-22 19:35:00,53.6,22.1,30.44,ESE,104,10.4,10.4,29,0.00,CLR,,0.00,14.0,WeatherDisplay:10.37,2013-04-22 23:35:00,
2013-04-22 19:40:00,53.3,22.6,30.44,East,87,11.5,11.5,30,0.00,CLR,,0.00,12.0,WeatherDisplay:10.37,2013-04-22 23:40:00,
2013-04-22 19:45:00,53.2,21.7,30.44,ESE,104,7.0,7.0,29,0.00,CLR,,0.00,9.0,WeatherDisplay:10.37,2013-04-22 23:45:00,
2013-04-22 19:50:00,53.1,22.4,30.44,East,96,15.0,15.0,30,0.00,CLR,,0.00,5.0,WeatherDisplay:10.37,2013-04-22 23:50:00,
2013-04-22 19:55:00,52.8,22.2,30.44,ESE,102,10.4,10.4,30,0.00,CLR,,0.00,0.0,WeatherDisplay:10.37,2013-04-22 23:55:00,
2013-04-22 20:00:00,52.5,22.7,30.44,ESE,118,10.4,10.4,31,0.00,CLR,,0.00,0.0,WeatherDisplay:10.37,2013-04-23 00:00:00,
2013-04-22 20:05:00,52.2,22.4,30.44,East,86,10.0,10.0,31,0.00,CLR,,0.00,0.0,WeatherDisplay:10.37,2013-04-23 00:05:00,
2013-04-22 20:10:00,51.9,22.9,30.44,ENE,73,10.4,10.4,32,0.00,CLR,,0.00,0.0,WeatherDisplay:10.37,2013-04-23 00:10:00,
2013-04-22 20:15:00,51.7,22.8,30.44,East,96,4.0,4.0,32,0.00,CLR,,0.00,0.0,WeatherDisplay:10.37,2013-04-23 00:15:00,
2013-04-22 20:20:00,51.3,23.1,30.44,ESE,106,4.0,4.0,33,0.00,CLR,,0.00,0.0,WeatherDisplay:10.37,2013-04-23 00:20:00,
2013-04-22 20:25:00,51.0,23.6,30.45,East,97,4.6,4.6,34,0.00,CLR,,0.00,0.0,WeatherDisplay:10.37,2013-04-23 00:25:00,
2013-04-22 20:30:00,50.8,23.4,30.45,East,90,6.0,6.0,34,0.00,CLR,,0.00,0.0,WeatherDisplay:10.37,2013-04-23 00:30:00,
2013-04-22 20:35:00,50.7,23.3,30.45,East,86,4.0,4.0,34,0.00,CLR,,0.00,0.0,WeatherDisplay:10.37,2013-04-23 00:35:00,
2013-04-22 20:40:00,50.5,23.1,30.45,SE,125,4.0,4.0,34,0.00,CLR,,0.00,0.0,WeatherDisplay:10.37,2013-04-23 00:40:00,
2013-04-22 20:45:00,50.2,23.5,30.46,ESE,115,2.0,7.0,35,0.00,CLR,,0.00,0.0,WeatherDisplay:10.37,2013-04-23 00:45:00,
2013-04-22 20:50:00,50.1,23.5,30.46,ESE,116,6.0,6.0,35,0.00,CLR,,0.00,0.0,WeatherDisplay:10.37,2013-04-23 00:50:00,
2013-04-22 20:55:00,49.9,23.3,30.46,ESE,106,4.0,4.0,35,0.00,CLR,,0.00,0.0,WeatherDisplay:10.37,2013-04-23 00:55:00,
2013-04-22 21:00:00,49.6,23.0,30.46,East,100,4.0,4.0,35,0.00,CLR,,0.00,0.0,WeatherDisplay:10.37,2013-04-23 01:00:00,
2013-04-22 21:05:00,49.5,22.9,30.46,ESE,111,3.5,3.5,35,0.00,CLR,,0.00,0.0,WeatherDisplay:10.37,2013-04-23 01:05:00,
2013-04-22 21:10:00,49.2,22.7,30.46,ESE,113,4.6,4.6,35,0.00,CLR,,0.00,0.0,WeatherDisplay:10.37,2013-04-23 01:10:00,
2013-04-22 21:15:00,49.1,23.3,30.46,ESE,106,2.0,7.0,36,0.00,CLR,,0.00,0.0,WeatherDisplay:10.37,2013-04-23 01:15:00,
2013-04-22 21:20:00,48.8,23.6,30.46,SE,127,4.0,4.0,37,0.00,CLR,,0.00,0.0,WeatherDisplay:10.37,2013-04-23 01:20:00,
2013-04-22 21:25:00,48.2,25.0,30.46,SE,131,4.0,4.0,40,0.00,CLR,,0.00,0.0,WeatherDisplay:10.37,2013-04-23 01:25:00,
2013-04-22 21:30:00,47.6,25.6,30.46,SE,130,3.5,3.5,42,0.00,CLR,,0.00,0.0,WeatherDisplay:10.37,2013-04-23 01:30:00,
2013-04-22 21:35:00,46.7,25.4,30.46,SE,130,2.3,2.3,43,0.00,CLR,,0.00,0.0,WeatherDisplay:10.37,2013-04-23 01:35:00,
2013-04-22 21:40:00,45.7,26.1,30.46,SE,129,3.5,3.5,46,0.00,CLR,,0.00,0.0,WeatherDisplay:10.37,2013-04-23 01:40:00,
2013-04-22 21:45:00,44.8,25.8,30.46,SE,128,0.0,4.0,47,0.00,CLR,,0.00,0.0,WeatherDisplay:10.37,2013-04-23 01:45:00,
2013-04-22 21:50:00,44.1,26.6,30.46,SE,126,3.5,3.5,50,0.00,CLR,,0.00,0.0,WeatherDisplay:10.37,2013-04-23 01:50:00,
2013-04-22 21:55:00,43.3,27.3,30.46,SE,128,2.3,2.3,53,0.00,CLR,,0.00,0.0,WeatherDisplay:10.37,2013-04-23 01:55:00,
2013-04-22 22:00:00,42.8,27.3,30.46,SE,128,1.0,0.0,54,0.00,CLR,,0.00,0.0,WeatherDisplay:10.37,2013-04-23 02:00:00,
2013-04-22 22:05:00,42.2,27.6,30.46,SE,128,1.2,1.2,56,0.00,CLR,,0.00,0.0,WeatherDisplay:10.37,2013-04-23 02:05:00,
2013-04-22 22:10:00,41.6,28.7,30.46,SE,128,0.0,0.0,60,0.00,CLR,,0.00,0.0,WeatherDisplay:10.37,2013-04-23 02:10:00,
2013-04-22 22:15:00,40.8,27.6,30.46,SE,128,1.2,0.0,59,0.00,CLR,,0.00,0.0,WeatherDisplay:10.37,2013-04-23 02:15:00,
2013-04-22 22:20:00,40.3,28.3,30.46,SE,128,1.2,1.2,62,0.00,CLR,,0.00,0.0,WeatherDisplay:10.37,2013-04-23 02:20:00,
2013-04-22 22:25:00,40.1,28.5,30.46,SE,128,0.0,0.0,63,0.00,CLR,,0.00,0.0,WeatherDisplay:10.37,2013-04-23 02:25:00,
2013-04-22 22:30:00,39.6,28.4,30.46,SE,128,0.0,0.0,64,0.00,CLR,,0.00,0.0,WeatherDisplay:10.37,2013-04-23 02:30:00,
2013-04-22 22:35:00,39.2,29.2,30.46,SE,128,0.0,0.0,67,0.00,CLR,,0.00,0.0,WeatherDisplay:10.37,2013-04-23 02:35:00,
2013-04-22 22:40:00,38.8,29.1,30.46,SE,128,0.0,0.0,68,0.00,CLR,,0.00,0.0,WeatherDisplay:10.37,2013-04-23 02:40:00,
2013-04-22 22:45:00,38.3,29.0,30.45,ESE,109,2.0,2.0,69,0.00,CLR,,0.00,0.0,WeatherDisplay:10.37,2013-04-23 02:45:00,
2013-04-22 22:50:00,38.2,28.2,30.45,East,101,3.0,3.0,67,0.00,CLR,,0.00,0.0,WeatherDisplay:10.37,2013-04-23 02:50:00,
2013-04-22 22:55:00,38.6,26.7,30.45,East,95,4.0,4.0,62,0.00,CLR,,0.00,0.0,WeatherDisplay:10.37,2013-04-23 02:55:00,
2013-04-22 23:00:00,39.6,26.4,30.45,East,87,4.0,4.0,59,0.00,CLR,,0.00,0.0,WeatherDisplay:10.37,2013-04-23 03:00:00,
2013-04-22 23:05:00,40.8,25.4,30.45,ESE,121,8.0,8.0,54,0.00,CLR,,0.00,0.0,WeatherDisplay:10.37,2013-04-23 03:05:00,
2013-04-22 23:10:00,42.5,25.1,30.45,ESE,110,7.0,7.0,50,0.00,CLR,,0.00,0.0,WeatherDisplay:10.37,2013-04-23 03:10:00,
2013-04-22 23:15:00,43.3,24.9,30.45,East,101,5.8,5.8,48,0.00,CLR,,0.00,0.0,WeatherDisplay:10.37,2013-04-23 03:15:00,
2013-04-22 23:20:00,44.6,25.1,30.45,East,101,6.0,6.0,46,0.00,CLR,,0.00,0.0,WeatherDisplay:10.37,2013-04-23 03:20:00,
2013-04-22 23:25:00,45.1,25.0,30.44,ESE,103,9.2,9.2,45,0.00,CLR,,0.00,0.0,WeatherDisplay:10.37,2013-04-23 03:25:00,
2013-04-22 23:30:00,45.2,25.6,30.44,East,86,10.0,10.0,46,0.00,CLR,,0.00,0.0,WeatherDisplay:10.37,2013-04-23 03:30:00,
2013-04-22 23:35:00,45.4,25.8,30.44,East,85,7.0,7.0,46,0.00,CLR,,0.00,0.0,WeatherDisplay:10.37,2013-04-23 03:35:00,
2013-04-22 23:40:00,45.2,25.6,30.44,ESE,102,10.0,10.0,46,0.00,CLR,,0.00,0.0,WeatherDisplay:10.37,2013-04-23 03:40:00,
2013-04-22 23:45:00,45.1,25.5,30.44,East,101,7.0,7.0,46,0.00,CLR,,0.00,0.0,WeatherDisplay:10.37,2013-04-23 03:45:00,
2013-04-22 23:50:00,45.1,25.5,30.44,ESE,110,10.4,10.4,46,0.00,CLR,,0.00,0.0,WeatherDisplay:10.37,2013-04-23 03:50:00,
2013-04-22 23:55:00,44.9,27.4,30.44,SSE,162,5.0,5.0,50,0.00,CLR,,0.00,0.0,WeatherDisplay:10.37,2013-04-23 03:55:00,